Weather History for KUNU - November, 2011

Change the Weather History Date:

Sunday, November 20, 2011

  Actual Average Record
Temperature  
Mean Temperature 34 °F -  
Max Temperature 35 °F 42 °F 64 °F (2003)
Min Temperature 32 °F 29 °F 7 °F (2014)
Degree Days  
Heating Degree Days 32    
Moisture  
Dew Point 28 °F    
Average Humidity 84    
Maximum Humidity 100    
Minimum Humidity 69    
Precipitation  
Precipitation 0.00 in - - ()
Sea Level Pressure  
Sea Level Pressure 30.23 in    
Wind  
Wind Speed 8 mph (North)    
Max Wind Speed 14 mph    
Max Gust Speed 20 mph    
Visibility 10 miles    
Events      
Averages and records for this station are not official NWS values.
T = Trace of Precipitation, MM = Missing Value Source: NWS Daily Summary

Daily Weather History Graph

Daily Weather History Graph

Search for Another Location

Airport or City:

Trip Planner

Search our weather history database for the weather conditions in past years. The results will help you decide how hot, cold, wet, or windy it might be!

Date:

Astronomy

Nov. 20, 2011 Rise Set
Actual Time 6:54 AM CST 4:26 PM CST
Civil Twilight 6:23 AM CST 4:57 PM CST
Nautical Twilight 5:48 AM CST 5:32 PM CST
Astronomical Twilight 5:14 AM CST 6:06 PM CST
Moon 1:14 AM CST (11/20) 1:22 PM CST (11/20)
Length of Visible Light 10h 34m
Length of Day
9h 31m
Waning Crescent, 27% of the Moon is Illuminated
Nov 20
Waning Crescent
Nov 25
New
Dec 2
First Quarter
Dec 10
Full
Dec 17
Last Quarter

Hourly Weather History & Observations

Time (CST) Temp. Windchill Dew Point Humidity Pressure Visibility Wind Dir Wind Speed Gust Speed Precip Events Conditions
12:35 AM 35.6 °F 27.1 °F 33.8 °F 93% 29.94 in 10.0 mi NW 12.7 mph 19.6 mph N/A   Overcast
12:55 AM 35.6 °F 27.5 °F 33.8 °F 93% 29.97 in 10.0 mi NW 11.5 mph 16.1 mph N/A   Overcast
1:15 AM 33.8 °F 25.3 °F 33.8 °F 100% 29.98 in 10.0 mi NNW 11.5 mph 17.3 mph N/A   Overcast
1:35 AM 33.8 °F 26.4 °F 33.8 °F 100% 30.00 in 7.0 mi NNW 9.2 mph 16.1 mph N/A   Overcast
1:55 AM 33.8 °F 25.8 °F 33.8 °F 100% 30.02 in 5.0 mi NNW 10.4 mph - N/A   Overcast
2:15 AM 33.8 °F 26.4 °F 33.8 °F 100% 30.04 in 5.0 mi NNW 9.2 mph - N/A   Overcast
2:35 AM 33.8 °F 24.3 °F 33.8 °F 100% 30.05 in 7.0 mi NNW 13.8 mph - N/A   Overcast
2:55 AM 33.8 °F 24.8 °F 32.0 °F 93% 30.05 in 10.0 mi NNW 12.7 mph 18.4 mph N/A   Overcast
3:15 AM 33.8 °F 26.4 °F 32.0 °F 93% 30.07 in 10.0 mi NNW 9.2 mph - N/A   Overcast
3:35 AM 32.0 °F 25.6 °F 32.0 °F 100% 30.08 in 10.0 mi NNW 6.9 mph - N/A   Overcast
3:55 AM 32.0 °F 24.2 °F 32.0 °F 100% 30.08 in 10.0 mi NNW 9.2 mph - N/A   Overcast
4:15 AM 33.8 °F 27.0 °F 32.0 °F 93% 30.10 in 10.0 mi NNW 8.1 mph - N/A   Overcast
4:35 AM 33.8 °F 28.6 °F 32.0 °F 93% 30.12 in 10.0 mi NNW 5.8 mph - N/A   Overcast
4:55 AM 33.8 °F 28.6 °F 32.0 °F 93% 30.13 in 10.0 mi NNW 5.8 mph - N/A   Overcast
5:15 AM 33.8 °F 30.8 °F 30.2 °F 87% 30.15 in 10.0 mi WNW 3.5 mph - N/A   Overcast
5:35 AM 33.8 °F - 30.2 °F 87% 30.15 in 10.0 mi Calm Calm - N/A   Overcast
5:55 AM 33.8 °F 30.8 °F 28.4 °F 81% 30.16 in 10.0 mi NW 3.5 mph - N/A   Overcast
6:15 AM 32.0 °F 27.5 °F 28.4 °F 87% 30.17 in 10.0 mi NNW 4.6 mph - N/A   Overcast
6:35 AM 32.0 °F 27.5 °F 28.4 °F 87% 30.19 in 10.0 mi NW 4.6 mph - N/A   Overcast
6:55 AM 32.0 °F 27.5 °F 28.4 °F 87% 30.20 in 10.0 mi NW 4.6 mph - N/A   Overcast
7:15 AM 32.0 °F 28.7 °F 28.4 °F 87% 30.21 in 10.0 mi NNW 3.5 mph - N/A   Overcast
7:35 AM 32.0 °F 28.7 °F 28.4 °F 87% 30.22 in 10.0 mi NNW 3.5 mph - N/A   Overcast
7:55 AM 32.0 °F 27.5 °F 30.2 °F 93% 30.23 in 10.0 mi NNW 4.6 mph - N/A   Overcast
8:15 AM 32.0 °F 26.4 °F 28.4 °F 87% 30.24 in 10.0 mi NNW 5.8 mph - N/A   Overcast
8:35 AM 32.0 °F 24.2 °F 28.4 °F 87% 30.25 in 10.0 mi North 9.2 mph - N/A   Overcast
9:15 AM 32.0 °F 23.6 °F 28.4 °F 87% 30.27 in 10.0 mi North 10.4 mph - N/A   Overcast
9:35 AM 32.0 °F 23.6 °F 26.6 °F 80% 30.28 in 10.0 mi North 10.4 mph - N/A   Overcast
9:55 AM 32.0 °F 24.2 °F 26.6 °F 80% 30.28 in 10.0 mi North 9.2 mph - N/A   Overcast
10:15 AM 32.0 °F 24.8 °F 26.6 °F 80% 30.29 in 10.0 mi North 8.1 mph - N/A   Overcast
10:55 AM 33.8 °F 27.0 °F 26.6 °F 75% 30.29 in 10.0 mi NNE 8.1 mph - N/A   Overcast
11:15 AM 33.8 °F 26.4 °F 26.6 °F 75% 30.29 in 10.0 mi North 9.2 mph - N/A   Overcast
11:35 AM 33.8 °F 27.0 °F 26.6 °F 75% 30.29 in 10.0 mi North 8.1 mph - N/A   Overcast
11:55 AM 33.8 °F 28.6 °F 26.6 °F 75% 30.29 in 10.0 mi North 5.8 mph - N/A   Overcast
12:15 PM 33.8 °F 27.0 °F 26.6 °F 75% 30.29 in 10.0 mi North 8.1 mph - N/A   Overcast
12:35 PM 33.8 °F 27.0 °F 26.6 °F 75% 30.29 in 10.0 mi North 8.1 mph - N/A   Overcast
12:55 PM 33.8 °F 27.7 °F 26.6 °F 75% 30.30 in 10.0 mi NNE 6.9 mph - N/A   Overcast
1:15 PM 33.8 °F 29.6 °F 26.6 °F 75% 30.30 in 10.0 mi North 4.6 mph - N/A   Overcast
1:35 PM 33.8 °F 27.7 °F 26.6 °F 75% 30.30 in 10.0 mi North 6.9 mph - N/A   Overcast
2:15 PM 33.8 °F 28.6 °F 26.6 °F 75% 30.30 in 10.0 mi North 5.8 mph - N/A   Overcast
2:35 PM 33.8 °F 27.7 °F 26.6 °F 75% 30.30 in 10.0 mi North 6.9 mph - N/A   Overcast
2:55 PM 33.8 °F 26.4 °F 26.6 °F 75% 30.31 in 10.0 mi North 9.2 mph - N/A   Overcast
3:15 PM 32.0 °F 24.8 °F 26.6 °F 80% 30.31 in 10.0 mi North 8.1 mph - N/A   Overcast
3:35 PM 32.0 °F 25.6 °F 26.6 °F 80% 30.33 in 10.0 mi North 6.9 mph - N/A   Overcast
3:55 PM 32.0 °F 26.4 °F 26.6 °F 80% 30.33 in 10.0 mi North 5.8 mph - N/A   Overcast
4:15 PM 32.0 °F 27.5 °F 26.6 °F 80% 30.34 in 10.0 mi NNE 4.6 mph - N/A   Overcast
4:35 PM 32.0 °F 26.4 °F 26.6 °F 80% 30.34 in 10.0 mi NNE 5.8 mph - N/A   Overcast
4:55 PM 32.0 °F 26.4 °F 26.6 °F 80% 30.34 in 10.0 mi NNE 5.8 mph - N/A   Overcast
5:15 PM 32.0 °F 27.5 °F 26.6 °F 80% 30.34 in 10.0 mi NNE 4.6 mph - N/A   Overcast
5:35 PM 32.0 °F 27.5 °F 26.6 °F 80% 30.35 in 10.0 mi NE 4.6 mph - N/A   Overcast
5:55 PM 32.0 °F 26.4 °F 26.6 °F 80% 30.35 in 10.0 mi NE 5.8 mph - N/A   Overcast
6:15 PM 32.0 °F 26.4 °F 26.6 °F 80% 30.35 in 10.0 mi NE 5.8 mph - N/A   Overcast
6:35 PM 32.0 °F 25.6 °F 26.6 °F 80% 30.34 in 10.0 mi NE 6.9 mph - N/A   Overcast
6:55 PM 32.0 °F 26.4 °F 24.8 °F 75% 30.35 in 10.0 mi NE 5.8 mph - N/A   Overcast
7:15 PM 32.0 °F 25.6 °F 24.8 °F 75% 30.34 in 10.0 mi ENE 6.9 mph - N/A   Overcast
7:35 PM 32.0 °F 25.6 °F 24.8 °F 75% 30.35 in 10.0 mi NE 6.9 mph - N/A   Overcast
7:55 PM 32.0 °F 25.6 °F 26.6 °F 80% 30.34 in 10.0 mi NE 6.9 mph - N/A   Overcast
8:15 PM 32.0 °F 27.5 °F 24.8 °F 75% 30.34 in 10.0 mi NNE 4.6 mph - N/A   Overcast
8:35 PM 32.0 °F 28.7 °F 24.8 °F 75% 30.34 in 10.0 mi NNE 3.5 mph - N/A   Overcast
8:55 PM 32.0 °F 27.5 °F 24.8 °F 75% 30.34 in 10.0 mi North 4.6 mph - N/A   Overcast
9:15 PM 32.0 °F 28.7 °F 23.0 °F 69% 30.34 in 10.0 mi NNE 3.5 mph - N/A   Overcast
9:35 PM 32.0 °F 27.5 °F 23.0 °F 69% 30.34 in 10.0 mi NE 4.6 mph - N/A   Overcast
9:55 PM 32.0 °F 26.4 °F 23.0 °F 69% 30.35 in 10.0 mi NE 5.8 mph - N/A   Overcast
10:15 PM 32.0 °F 27.5 °F 23.0 °F 69% 30.34 in 10.0 mi ENE 4.6 mph - N/A   Overcast
10:35 PM 30.2 °F 25.4 °F 23.0 °F 75% 30.34 in 10.0 mi NE 4.6 mph - N/A   Overcast
10:55 PM 30.2 °F 25.4 °F 23.0 °F 75% 30.33 in 10.0 mi NE 4.6 mph - N/A   Overcast
11:15 PM 30.2 °F 26.7 °F 23.0 °F 75% 30.32 in 10.0 mi NE 3.5 mph - N/A   Overcast
11:35 PM 30.2 °F 26.7 °F 23.0 °F 75% 30.32 in 10.0 mi NE 3.5 mph - N/A   Overcast